KAVQKSDL

Guest
Details From KAVQ - MARANA RGNL
To KSDL - SCOTTSDALE
Flight Number -
Tags generated
Created
Modified
Stats Distance 82 nm / 151 km
Max Altitude 7,100 ft / 2,164 m
Waypoints 3
Social Downloads 1
Likes 0
Share VATSIM

Download

Looking for another format? Having issues loading an existing format? Contact us
Advertisement - Login to hide

Notes

Basic altitude profile: - Ascent Rate: 2500ft/min - Ascent Speed: 250kts - Cruise Altitude: 6000ft - Cruise Speed: 120kts - Descent Rate: 1500ft/min - Descent Speed: 250kts Options: - Use NATs: no - Use PACOTS: no - Use low airways: yes - Use high airways: no

Route

KAVQ PICLI KSDL

ID Type Via Altitude Latitude Longitude Leg Dist Tot Dist Heading (true) Name
O KAVQ APT - 0 ft / 0 m 32.40905˚ -111.21838˚ - 0 nm - MARANA RGNL
PICLI FIX - 7,100 ft / 2,164 m 32.66322˚ -111.47833˚ 20 nm 20 nm 319° / 319° -
O KSDL APT - 0 ft / 0 m 33.62288˚ -111.91053˚ 61 nm 81 nm 339° / 339° SCOTTSDALE

Altitude Profile

Advertisement - Login to hide

KAVQ

Details ICAO KAVQ (AVW)
Name MARANA RGNL
Region United States
Timezone America/Phoenix (UTC-7.0)
Stats Elevation 2,031 ft / 619 m (AMSL)
Location 32.409049° -111.218379°
Runways 2
Magnetic Variation 9.878° E

METAR

KAVQ 201935Z AUTO 20010KT 10SM CLR 32/M06 A2985 RMK AO2 T03221064

Decode

TAF

Not found

Departure Runways

ID Width Length Bearing (true) Bearing (mag) Surface Threshold Offset Overrun Length
03 75 ft / 23 m 3,895 ft / 1,187 m 45.33° 35.45° Asphalt 494 ft / 151 m 0 ft / 0 m
12 100 ft / 30 m 6,905 ft / 2,105 m 135.61° 125.73° Asphalt 0 ft / 0 m 0 ft / 0 m
21 75 ft / 23 m 3,895 ft / 1,187 m 225.34° 215.46° Asphalt 0 ft / 0 m 0 ft / 0 m
30 100 ft / 30 m 6,905 ft / 2,105 m 315.62° 305.74° Asphalt 0 ft / 0 m 0 ft / 0 m

KSDL

Details ICAO KSDL (ZSY)
Name SCOTTSDALE
Region United States
Timezone America/Phoenix (UTC-7.0)
Stats Elevation 1,510 ft / 460 m (AMSL)
Location 33.622881° -111.910535°
Runways 1
Magnetic Variation 10.273° E

METAR

KSDL 201853Z VRB06KT 10SM CLR 32/00 A2985 RMK AO2 SLP083 T03170000

Decode

TAF

KSDL 201720Z 2018/2118 18006KT P6SM SKC FM202300 22008KT P6SM FEW250 FM210500 VRB03KT P6SM FEW250

Decode

Destination Runways

ID Width Length Bearing (true) Bearing (mag) Surface Threshold Offset Overrun Length
03 100 ft / 30 m 8,253 ft / 2,516 m 43.82° 33.55° Asphalt 740 ft / 226 m 0 ft / 0 m
21 100 ft / 30 m 8,253 ft / 2,516 m 223.83° 213.56° Asphalt 400 ft / 122 m 0 ft / 0 m